246P/NEAT (2013)

Japanese version
Home page
Updated on December 16, 2014

---------------------------------------------------------------------

* Profile

Designation 246P/2010 V2
Recovery Date November 2 and 3, 2010
Magnitude 20.4 mag
Recoverer E. Romas (Rostov-na-Donu, Russia), A. Novichonok (Kondopoga, Russia), D. Chestnov (Saransk, Russia), G. Hug (Scranton, KS, U.S.A.)

* Pictures

* Orbital Elements

Epoch 2013 Jan. 28.0 TT = JDT 2456320.5
T 2013 Jan. 28.71131 TT                                 MPC
q   2.8797669            (2000.0)            P               Q
n   0.12191614     Peri.  176.18930     -0.25681243     +0.92800785
a   4.0280536      Node    78.78045     -0.89382645     -0.12184187
e   0.2850723      Incl.   15.97178     -0.36758898     -0.35207385
P   8.08
From 2758 observations 2004 Jan. 29-2014 Oct. 27, mean residual 0".6.
     Nongravitational parameters A1 = -4.97, A2 = +3.7228.

* Finding Charts

* Magnitudes Graph

        m1 = -17.5 + 5 log d + 50   log r(t - 200)  [    ,-460]  (             - 2011 Oct. 26)
        m1 =   0.0 + 5 log d + 25.0 log r(t + 85)   [-460,    ]  (2011 Oct. 26 - 2013 June  7)
        m1 =   5.2 + 5 log d + 15.0 log r           [ 130,    ]  (2013 June  7 -             )

---------------------------------------------------------------------

The orbital elements are published on M.P.E.C. 2014-V27.
The charts are made with StellaNavigator Ver.8 (AstroArts).
The magnitudes graphs are made with Comet for Windows.

---------------------------------------------------------------------

Copyright(C) Seiichi Yoshida (comet@aerith.net). All rights reserved.